User: anonymous   Login
Location: Caltech
(34.1382°N, 118.1253°W)
Time: 00:59:47
(UTC-07:00)
Language:

Iridium 49 - Orbit

View from above orbital plane
View from above orbital plane
View from above satellite
View from above satellite

Ground track
Ground track

The orbit data is extracted from the following two-line orbital elements,

1 25108U 97082E   16121.37398946  .00000205  00000-0  66265-4 0  9998
2 25108  86.3967  67.9984 0002133  84.3661  27.2540 14.34215831961207
Epoch (UTC): 30 April 2016 08:58:32
Eccentricity: 0.0002133
inclination: 86.3967°
perigee height: 776 km
apogee height: 779 km
right ascension of ascending node: 67.9984°
argument of perigee: 84.3661°
revolutions per day: 14.34215831
mean anomaly at epoch: 27.2540°
orbit number at epoch: 96120

The dashed part of the orbit path shows where the satellite is in the earth's shadow,  

DLR